Track PLEIADES 1B now! 10-day predictions PLEIADES 1B is classified as:
1 39019U 12068A 25199.81292758 .00000237 00000-0 60787-4 0 9991 2 39019 98.1943 274.6507 0001479 92.2155 267.9213 14.58569981672252